Location: Home
(42.5358°N, 72.7383°W)
Time: 17:12:47
(UTC-04:00)

Explorer 11/Cluster Stage 4 - Pass Details

Date: 06 August 2024
Orbit: 464 x 1208 km, 28.8° (Epoch: 19 September)

Event Time Altitude Azimuth Distance (km) Brightness Sun altitude
Rises 06:09:05 0° 257° (WSW) 4,105 9.6 2.6°
Reaches altitude 10° 06:13:24 10° 237° (WSW) 3,141 9.1 3.4°
Maximum altitude 06:17:35 15° 205° (SSW) 2,717 9.0 4.1°
Drops below altitude 10° 06:21:39 10° 173° (S) 3,026 9.5 4.8°
Sets 06:25:41 0° 152° (SSE) 3,872 10.3 5.5°
